Location: Chatou
(48.8898°N, 2.1586°E)
Time: 21:14:28
(UTC+00:00)

STRAND 1 - Pass Details

Date: 07 December 2023
Orbit: 766 x 778 km, 98.4° (Epoch: 28 February)

Event Time Altitude Azimuth Distance (km) Brightness Sun altitude
Exits shadow 20:14:57 16° 273° (W) 1,934 ? -41.6°
Drops below altitude 10° 20:16:32 10° 257° (WSW) 2,309 ? -41.8°
Sets 20:19:24 0° 241° (WSW) 3,233 ? -42.3°
